Location: ?????????
(41.2393°N, 22.9479°E)
Time: 21:58:23
(UTC+00:00)

Resurs 1-3 - Pass Details

Date: 17 November 2025
Orbit: 613 x 615 km, 97.7° (Epoch: 11 December)

Event Time Altitude Azimuth Distance (km) Brightness Sun altitude
Rises 16:38:04 0° 154° (SSE) 2,870 6.8 -17.0°
Reaches altitude 10° 16:40:17 10° 149° (SSE) 1,969 5.9 -17.4°
Maximum altitude 16:44:26 52° 74° (ENE) 768 3.6 -18.2°
Drops below altitude 10° 16:48:38 10° 358° (N) 1,983 6.1 -19.0°
Sets 16:50:51 0° 353° (N) 2,892 7.0 -19.4°
